Location: Fontenoy
(49.4072°N, 3.2008°E)
Time: 20:35:11
(UTC+00:00)

COSMOS 2428 - Pass Details

Date: 15 May 2026
Orbit: 844 x 855 km, 70.9° (Epoch: 6 June)

Event Time Altitude Azimuth Distance (km) Brightness Sun altitude
Rises 22:49:27 0° 330° (NNW) 3,425 7.2 -20.5°
Reaches altitude 10° 22:51:54 10° 329° (NNW) 2,484 6.2 -20.6°
Maximum altitude 22:57:36 77° 245° (WSW) 875 2.7 -20.8°
Enters shadow 22:59:33 43° 168° (SSE) 1,183 3.0 -20.8°
